Wind_Speed
14 9 8 7 5 5 4 4 3 2 2 2 1 2 3 3 3 4 4 3 3 2 1 2 2 1 1 1 1 2 3 4 4 5 6 7 8 8 9 10 10 10 9
13 12 11 9 7 6 6 5 4 3 3 2 2 3 3 3 4 5 4 3 2 1 2 2 2 2 1 1 2 3 4 4 5 6 7 8 9 9 10 10 10 11 12
15 14 11 11 8 8 7 7 5 4 3 3 2 4 6 6 5 5 6 4 2 2 4 4 3 2 1 0 2 3 4 5 5 6 7 8 9 9 10 10 11 12 12
16 14 13 12 9 9 9 8 7 6 6 4 4 4 4 5 7 7 7 5 4 4 5 5 3 2 1 1 2 3 4 4 5 6 7 8 9 9 10 10 10 11 12
17 17 15 14 12 12 12 10 9 8 7 6 5 4 5 6 8 8 6 4 5 6 5 5 4 3 3 3 3 3 3 4 5 6 7 7 8 9 9 9 10 10 10
20 20 19 17 15 14 12 11 10 9 8 6 6 7 5 5 8 10 5 5 5 6 5 4 5 3 2 2 3 4 4 4 6 6 6 7 8 9 9 9 10 10 11
23 22 20 19 17 17 15 14 12 11 9 8 5 4 6 7 7 11 8 7 7 8 4 2 1 2 1 1 1 3 3 5 6 6 6 7 8 8 9 9 10 11 11
25 25 24 22 21 20 18 16 15 13 11 9 5 3 1 3 10 11 10 9 10 11 5 4 2 3 3 1 1 2 4 5 7 5 5 6 7 8 9 9 10 10 11
27 27 25 24 23 22 22 21 19 18 14 12 15 6 2 4 3 10 15 12 12 14 11 7 6 6 5 4 3 4 4 6 7 6 6 6 7 8 8 9 10 10 10
29 29 27 26 25 25 24 22 21 21 18 16 12 17 12 3 3 1 8 15 13 16 15 13 10 8 8 6 5 5 5 6 7 7 7 7 7 7 8 9 9 10 10
32 32 31 30 28 27 27 25 24 23 22 21 19 7 17 12 10 3 3 5 15 16 16 15 12 11 11 8 7 7 6 7 8 6 6 7 7 7 8 8 9 9 10
33 33 33 34 33 31 30 29 27 25 25 25 23 21 13 6 10 7 2 5 7 10 15 15 15 14 13 11 10 8 7 8 7 6 6 8 9 8 8 8 9 9 10
35 37 35 37 37 36 35 32 30 29 28 28 27 27 25 21 10 14 6 4 6 10 8 16 18 16 16 15 13 11 9 8 9 7 8 10 9 9 9 8 9 10 10
38 38 37 38 39 38 36 34 34 33 31 30 29 29 28 27 24 18 13 9 2 3 11 10 16 19 18 17 15 13 10 10 9 8 10 10 10 9 10 9 9 9 9
38 37 36 38 40 40 38 37 37 37 35 34 33 31 30 29 28 27 24 22 12 3 3 8 14 18 19 18 16 13 11 11 10 9 10 12 11 11 14 9 8 8 9
38 40 39 38 39 40 41 40 40 39 38 37 35 33 32 32 31 30 29 29 27 21 3 12 16 14 20 20 17 15 13 13 11 11 12 12 11 12 13 9 9 10 11
42 41 42 41 41 41 42 43 43 43 42 41 39 37 37 35 35 33 32 32 32 30 16 15 11 19 19 20 19 17 15 15 14 13 12 13 11 14 13 9 11 11 10
41 43 43 43 43 44 43 45 46 45 45 45 44 41 40 37 36 36 37 38 37 36 32 22 27 17 22 24 22 20 17 17 16 14 13 13 13 14 13 11 12 13 11
39 40 42 45 46 46 45 45 46 46 46 48 46 45 44 40 39 41 41 42 42 39 38 29 23 23 22 21 23 22 20 18 17 15 15 14 15 15 13 13 14 13 12
39 39 41 43 45 46 46 47 46 45 46 46 46 46 45 45 45 44 44 45 42 40 37 34 29 27 22 24 24 25 22 20 19 17 17 16 17 16 15 16 11 13 12
38 38 41 42 44 44 44 44 46 46 45 44 44 47 49 49 49 48 44 45 39 37 30 27 24 24 28 20 29 22 26 21 20 19 19 15 15 15 16 12 11 11 13
34 37 38 40 42 44 41 44 45 43 43 43 41 45 48 46 50 50 51 49 48 40 34 29 28 22 30 31 30 29 23 17 6 15 13 14 13 16 13 11 12 14 14
22 30 37 38 40 43 43 44 46 47 42 42 43 40 39 42 45 48 49 51 50 49 44 42 34 36 28 41 36 30 29 21 17 11 12 14 13 12 11 11 13 15 10
26 24 26 36 40 42 41 43 47 49 46 44 42 43 44 41 43 46 44 45 45 50 50 49 48 45 46 36 32 36 32 28 21 16 15 6 11 11 10 12 13 9 8
34 30 26 27 34 39 40 40 40 43 41 43 42 44 45 44 43 46 47 41 41 45 45 54 50 48 46 35 32 30 29 22 11 13 19 12 10 10 10 9 9 13 11
35 33 31 29 29 33 36 38 39 39 36 35 38 41 43 47 43 44 48 42 39 39 44 38 46 48 44 39 35 37 37 29 11 7 20 20 12 9 3 8 13 12 12
Wind_Direction
220 220 221 220 242 223 226 217 227 230 206 298 238 273 274 280 240 258 280 298 315 342 185 175 186 182 184 306 339 348 354 347 345 343 340 336 335 333 334 333 327 321 314
208 211 217 222 219 224 220 226 230 254 255 229 232 245 246 246 247 249 270 291 279 20 140 145 169 183 178 314 325 338 344 342 340 338 335 331 327 326 325 323 323 329 322
210 210 215 219 228 221 229 230 232 234 255 243 253 278 269 237 246 242 242 242 203 154 106 119 119 106 124 28 331 346 341 339 339 339 337 336 331 329 328 325 324 323 318
206 210 217 218 223 218 228 223 223 237 246 249 265 273 269 239 226 233 234 228 171 150 126 108 92 85 81 56 352 344 341 340 340 345 344 341 336 336 333 330 326 323 320
209 215 215 216 217 226 234 229 226 237 238 239 251 253 254 237 238 205 187 172 175 160 130 105 53 91 91 57 20 358 7 1 358 3 3 360 356 350 345 341 338 332 329
216 219 219 218 218 226 229 223 228 233 244 254 257 248 229 217 191 193 200 187 174 165 141 107 68 66 75 56 31 34 25 25 24 18 6 357 354 351 347 345 342 340 340
220 223 222 217 216 225 231 229 231 235 238 241 251 220 223 216 213 212 215 217 196 183 148 127 52 1 44 329 5 3 13 23 16 6 355 351 349 348 346 344 342 342 343
223 225 225 221 218 223 226 225 224 226 234 212 202 180 249 233 219 210 217 221 210 202 195 203 262 262 250 257 269 322 338 2 352 353 354 353 349 347 345 343 343 342 341
225 227 229 226 223 224 228 227 224 226 228 222 223 211 111 225 191 215 224 223 219 213 212 220 237 241 233 246 247 276 319 340 340 347 355 350 347 347 343 344 342 337 337
226 229 232 231 228 227 229 230 229 230 228 227 223 234 244 228 178 289 226 223 223 224 225 230 237 229 228 231 245 275 300 317 332 341 346 341 344 341 340 343 341 336 333
230 232 233 234 232 228 231 232 230 229 231 229 221 220 226 234 240 181 226 222 223 225 228 230 229 228 226 226 241 262 271 308 323 323 329 331 333 333 339 341 340 336 334
231 233 233 234 235 233 230 231 233 234 233 234 232 231 221 195 217 208 215 230 223 221 228 225 224 226 224 227 235 253 269 290 301 298 309 326 322 323 330 334 334 334 334
228 232 232 233 234 234 234 232 233 233 232 233 234 233 234 237 241 225 216 220 240 229 223 225 226 231 228 225 232 247 258 281 290 286 301 317 314 311 315 322 329 328 324
238 239 235 235 235 236 235 233 234 235 236 237 239 239 240 240 239 238 229 206 270 262 229 222 223 223 224 227 234 245 261 271 278 283 299 303 304 309 309 312 319 318 316
247 246 244 239 237 237 236 234 233 234 235 237 239 240 241 242 241 241 240 238 217 230 265 230 215 220 220 227 232 242 258 264 275 283 291 293 296 311 317 298 301 305 309
247 245 243 243 242 240 238 236 235 236 235 237 238 239 240 241 241 240 239 238 238 228 239 231 222 222 215 224 230 244 259 257 267 281 279 285 295 311 308 291 292 301 305
248 248 245 245 243 242 239 236 236 237 235 237 237 237 239 240 239 237 237 237 236 231 230 250 246 224 219 224 228 240 249 253 264 266 271 285 292 301 298 294 306 299 297
253 249 248 244 244 243 241 238 235 234 235 234 237 236 239 238 237 237 234 235 234 233 230 234 238 224 222 226 231 237 246 252 259 263 263 268 272 284 283 296 301 294 288
254 253 249 246 246 244 242 242 240 237 236 237 237 236 237 234 235 234 232 233 234 234 233 232 234 234 227 223 222 232 242 246 248 256 253 262 266 267 268 288 285 275 287
254 253 251 247 247 246 244 244 242 239 238 240 240 239 239 236 234 232 231 231 229 228 228 228 233 231 226 226 228 231 236 237 242 244 256 259 263 245 258 284 260 263 283
256 255 253 250 246 244 241 239 241 242 240 240 240 242 243 243 243 239 229 228 222 221 217 217 224 225 222 211 219 224 233 235 238 246 259 252 237 249 268 260 245 255 280
267 258 256 253 246 243 242 241 241 239 240 239 239 241 243 243 246 244 243 240 235 215 212 210 218 219 224 220 223 225 216 207 235 230 235 240 240 266 266 243 239 256 275
317 279 263 258 254 250 247 246 245 241 239 239 239 239 241 239 242 241 242 245 241 240 233 228 218 220 223 231 225 220 216 216 219 210 221 266 255 261 258 239 249 269 259
318 305 289 270 263 260 258 254 250 246 240 240 240 239 239 240 236 239 236 234 229 234 233 232 235 236 240 242 232 229 226 226 230 226 225 237 253 247 239 256 265 234 216
322 310 305 289 273 269 266 261 254 246 242 242 241 241 240 241 239 237 233 228 229 230 232 241 238 242 244 243 235 220 210 193 211 216 220 226 232 241 244 248 207 199 221
319 317 308 305 295 283 276 269 263 249 246 246 247 244 243 241 241 237 231 229 230 228 225 225 229 237 240 236 229 224 216 195 177 198 214 197 198 205 241 210 208 225 249
Height
844 845 846 846 847 847 848 849 849 849 849 849 849 849 850 850 850 850 850 850 850 849 849 850 851 852 854 855 855 856 856 856 855 855 854 854 853 853 852 850 849 848 848
842 843 844 845 846 846 847 847 848 848 848 848 848 849 849 849 850 849 849 849 849 848 848 849 850 851 852 853 853 854 854 854 853 853 853 853 852 851 850 849 848 847 846
839 841 842 843 845 845 846 847 847 847 847 847 847 847 848 848 848 848 847 847 847 848 848 848 849 849 850 851 852 852 852 852 852 851 851 851 850 849 848 847 846 845 843
837 839 841 842 843 844 845 846 846 846 846 846 846 846 846 846 846 846 846 846 846 847 847 848 848 848 849 849 850 850 850 850 850 849 848 848 848 847 846 845 844 842 841
835 837 839 840 842 843 844 844 844 845 844 844 844 844 844 844 844 844 844 844 845 845 846 847 847 848 848 849 850 849 849 849 848 847 846 846 846 845 844 843 842 840 839
832 834 836 838 840 840 841 842 843 843 843 843 842 842 842 842 842 842 843 843 843 844 844 845 845 846 847 848 848 848 847 847 846 846 846 845 844 843 842 841 839 838 836
829 831 833 835 836 837 838 840 840 841 840 840 841 841 841 841 840 840 841 841 841 842 843 843 843 844 845 846 846 846 846 845 844 844 844 843 842 841 840 839 837 836 835
825 827 828 830 832 834 835 836 837 838 838 838 839 840 841 840 838 838 839 839 839 840 840 841 841 842 842 843 843 844 843 843 842 842 841 840 840 838 838 837 835 834 832
820 822 824 826 828 830 831 832 833 834 835 836 836 836 840 839 836 835 835 836 836 836 837 838 839 840 840 840 841 842 841 841 840 839 838 838 837 836 835 834 833 831 830
816 818 819 821 823 825 826 828 830 831 832 832 834 833 833 833 834 836 833 833 833 833 834 835 836 837 838 838 839 839 839 839 838 836 835 835 835 834 833 831 830 829 827
811 813 815 816 818 820 821 824 825 826 827 829 829 829 830 831 830 831 832 829 829 829 830 832 833 834 835 835 836 837 837 836 835 834 833 833 832 831 830 829 827 826 825
806 807 809 811 813 814 816 818 820 822 823 824 825 826 826 826 826 828 829 827 826 826 826 828 829 831 831 831 833 834 834 833 833 832 831 830 829 828 826 825 824 823 822
798 800 803 805 806 808 810 813 814 816 817 818 819 820 822 823 824 824 824 825 825 824 824 824 825 826 827 828 830 831 831 830 830 829 829 827 825 824 823 822 821 820 819
792 795 796 798 800 802 804 807 808 810 811 812 814 816 818 819 821 821 821 822 825 822 821 819 819 820 822 824 826 827 827 827 827 826 825 824 822 821 820 818 817 817 816
788 789 791 792 793 795 797 799 801 802 804 806 807 810 811 813 815 817 818 818 820 823 818 811 814 815 818 820 822 822 822 823 822 822 822 821 819 818 816 814 814 814 812
783 783 784 785 786 787 790 792 793 794 797 797 799 802 803 805 808 811 812 813 814 815 817 808 809 811 814 816 818 818 818 819 819 818 818 817 816 814 812 811 810 810 808
776 777 777 779 779 781 782 783 784 786 787 789 791 792 793 797 800 803 806 808 809 809 810 808 807 809 810 812 813 813 814 814 814 814 813 812 811 811 809 808 807 806 804
768 770 771 771 772 773 774 775 775 776 777 778 779 783 784 788 791 794 796 797 799 800 802 801 804 804 806 807 809 808 809 809 809 808 808 808 807 807 806 804 803 802 801
759 760 762 763 763 764 766 768 769 770 769 769 769 771 773 777 780 782 784 786 788 791 794 795 797 800 801 802 803 803 803 803 803 803 803 803 803 802 801 800 799 798 797
751 752 752 753 754 756 757 759 761 762 762 762 763 763 764 764 766 768 771 773 777 781 784 788 790 793 793 795 796 796 796 797 797 798 798 798 797 797 796 795 794 794 793
744 743 743 744 746 746 747 750 751 752 753 754 753 754 753 753 754 757 760 762 766 770 774 779 781 783 784 784 783 786 789 791 791 791 791 790 791 791 791 790 790 789 789
737 736 736 736 735 736 738 740 742 742 743 743 743 743 743 745 746 748 749 751 753 756 761 765 767 769 769 770 774 777 781 784 786 782 783 783 784 784 784 784 785 784 783
732 730 729 728 726 726 728 730 732 732 732 731 732 734 734 734 736 738 741 743 744 746 748 752 753 753 756 755 764 768 770 772 773 774 777 776 777 777 778 779 779 778 778
728 725 722 721 719 718 719 720 721 721 720 719 720 721 721 723 724 727 731 731 732 732 735 739 737 739 741 747 752 754 759 764 767 769 771 772 771 771 773 773 773 773 773
724 720 716 713 711 709 710 710 711 710 708 707 709 709 710 711 713 715 717 718 719 717 722 723 726 730 734 740 743 747 751 757 760 761 763 766 765 766 767 767 767 767 768
719 714 710 707 704 701 700 700 701 700 697 698 698 696 697 698 703 705 705 707 705 706 709 713 717 720 724 729 732 735 738 744 749 754 753 758 758 761 762 761 763 764 764